User: anonymous   Login
Location: Trois-Rivi�res
(46.3500°N, 72.5500°W)
Time: 05:32:42
(UTC-04:00)
Language:

Cosmos 1544 - Orbit

View from above orbital plane
View from above orbital plane
View from above satellite
View from above satellite

Ground track
Ground track

The orbit data is extracted from the following two-line orbital elements,

1 14819U 84027A   14296.15358510  .00009875  00000-0  47919-3 0   582
2 14819 082.4865 276.6724 0016965 187.0087 259.4694 15.18231214668456
Epoch (UTC): 23 October 2014 03:41:09
Eccentricity: 0.0016965
inclination: 82.4865°
perigee height: 499 km
apogee height: 523 km
right ascension of ascending node: 276.6724°
argument of perigee: 187.0087°
revolutions per day: 15.18231214
mean anomaly at epoch: 259.4694°
orbit number at epoch: 66845

The dashed part of the orbit path shows where the satellite is in the earth's shadow,  

DLR